• In Deutschland
  • Länderverzeichnis
  • Für 7 Tage
  • Wassertemperatur
  • Satellitenkarten
  • Wetterkarte
  • Widgets
  • user-avatar
    Anmelden

    Stündliche Wetter Bad Segeberg

    Heute, 23 Januar, Dienstag

    Zeit Temperatur Niederschläge Wind Luftdruck Luftfeuchtigkeit
    00:00 0°C° 0 mm 1 m/S 756 mmHg 94%
    01:00 0°C° 0 mm 1 m/S 757 mmHg 94%
    02:00 0°C° 0 mm 1 m/S 757 mmHg 94%
    03:00 -2°C° 0 mm 2 m/S 758 mmHg 94%
    04:00 -1°C° 0 mm 2 m/S 758 mmHg 94%
    05:00 -1°C° 0 mm 2 m/S 759 mmHg 95%
    06:00 +1°C° 0 mm 2 m/S 759 mmHg 96%
    07:00 0°C° 0 mm 3 m/S 759 mmHg 96%
    08:00 0°C° 0,1 mm 3 m/S 760 mmHg 97%
    09:00 +1°C° 0,1 mm 3 m/S 760 mmHg 97%
    10:00 +1°C° 0,1 mm 3 m/S 760 mmHg 98%
    11:00 +1°C° 0 mm 4 m/S 760 mmHg 98%
    12:00 +1°C° 0 mm 4 m/S 760 mmHg 97%
    13:00 +3°C° 0 mm 4 m/S 760 mmHg 97%
    14:00 +3°C° 0 mm 4 m/S 760 mmHg 96%
    15:00 +3°C° 0 mm 4 m/S 760 mmHg 96%
    16:00 +3°C° 0 mm 4 m/S 760 mmHg 96%
    17:00 +1°C° 0 mm 5 m/S 759 mmHg 95%
    18:00 +1°C° 0 mm 5 m/S 759 mmHg 94%
    19:00 +1°C° 0 mm 6 m/S 758 mmHg 93%
    20:00 +2°C° 0,2 mm 6 m/S 758 mmHg 93%
    21:00 +2°C° 0,2 mm 6 m/S 757 mmHg 93%
    22:00 +3°C° 0,2 mm 7 m/S 757 mmHg 93%
    23:00 +3°C° 0,2 mm 7 m/S 756 mmHg 94%

    Morgen, 24 Januar, Mittwoch

    Zeit Temperatur Niederschläge Wind Luftdruck Luftfeuchtigkeit
    00:00 +4°C° 0,2 mm 7 m/S 756 mmHg 95%
    01:00 +5°C° 0,2 mm 6 m/S 756 mmHg 95%
    02:00 +5°C° 0,1 mm 6 m/S 756 mmHg 95%
    03:00 +7°C° 0,1 mm 6 m/S 756 mmHg 95%
    04:00 +7°C° 0,1 mm 6 m/S 756 mmHg 94%
    05:00 +7°C° 0 mm 6 m/S 756 mmHg 94%
    06:00 +7°C° 0 mm 6 m/S 756 mmHg 94%
    07:00 +7°C° 0 mm 5 m/S 756 mmHg 95%
    08:00 +7°C° 0 mm 6 m/S 756 mmHg 94%
    09:00 +8°C° 0 mm 6 m/S 755 mmHg 93%
    10:00 +8°C° 0 mm 6 m/S 755 mmHg 93%
    11:00 +9°C° 0 mm 7 m/S 755 mmHg 90%
    12:00 +9°C° 0 mm 7 m/S 754 mmHg 88%
    13:00 +10°C° 0 mm 7 m/S 754 mmHg 86%
    14:00 +10°C° 0 mm 7 m/S 753 mmHg 84%
    15:00 +10°C° 0 mm 7 m/S 752 mmHg 83%
    16:00 +10°C° 0 mm 8 m/S 751 mmHg 82%
    17:00 +10°C° 0,1 mm 8 m/S 751 mmHg 82%
    18:00 +10°C° 0,1 mm 9 m/S 751 mmHg 82%
    19:00 +9°C° 0,1 mm 10 m/S 750 mmHg 82%
    20:00 +10°C° 0,3 mm 9 m/S 750 mmHg 82%
    21:00 +10°C° 0,3 mm 9 m/S 750 mmHg 83%
    22:00 +8°C° 0,3 mm 9 m/S 750 mmHg 83%
    23:00 +9°C° 0,5 mm 8 m/S 750 mmHg 85%

    übermorgen, 25 Januar, Donnerstag

    Zeit Temperatur Niederschläge Wind Luftdruck Luftfeuchtigkeit
    00:00 +8°C° 0,5 mm 6 m/S 750 mmHg 87%
    01:00 +8°C° 0,5 mm 5 m/S 751 mmHg 89%
    02:00 +7°C° 0,4 mm 5 m/S 751 mmHg 89%
    03:00 +6°C° 0,4 mm 4 m/S 751 mmHg 90%
    04:00 +6°C° 0,4 mm 4 m/S 751 mmHg 90%
    05:00 +6°C° 0,1 mm 4 m/S 751 mmHg 90%
    06:00 +5°C° 0,1 mm 4 m/S 751 mmHg 90%
    07:00 +5°C° 0,1 mm 4 m/S 751 mmHg 90%
    08:00 +5°C° 0,1 mm 4 m/S 751 mmHg 89%
    09:00 +5°C° 0,1 mm 4 m/S 752 mmHg 89%
    10:00 +5°C° 0,1 mm 4 m/S 752 mmHg 89%
    11:00 +6°C° 0 mm 5 m/S 752 mmHg 86%
    12:00 +6°C° 0 mm 5 m/S 752 mmHg 84%
    13:00 +7°C° 0 mm 5 m/S 752 mmHg 81%
    14:00 +6°C° 0 mm 4 m/S 752 mmHg 83%
    15:00 +6°C° 0 mm 4 m/S 752 mmHg 84%
    16:00 +7°C° 0 mm 3 m/S 752 mmHg 86%
    17:00 +5°C° 0,1 mm 3 m/S 753 mmHg 88%
    18:00 +5°C° 0,1 mm 3 m/S 753 mmHg 90%
    19:00 +5°C° 0,1 mm 3 m/S 753 mmHg 93%
    20:00 +4°C° 0 mm 3 m/S 753 mmHg 93%
    21:00 +4°C° 0 mm 3 m/S 754 mmHg 94%
    22:00 +4°C° 0 mm 3 m/S 754 mmHg 95%
    23:00 +3°C° 0 mm 3 m/S 754 mmHg 95%

    26 Januar, Freitag

    Zeit Temperatur Niederschläge Wind Luftdruck Luftfeuchtigkeit
    00:00 +3°C° 0 mm 3 m/S 754 mmHg 95%
    01:00 +3°C° 0 mm 3 m/S 754 mmHg 95%
    02:00 +3°C° 0 mm 3 m/S 754 mmHg 95%
    03:00 +3°C° 0 mm 3 m/S 754 mmHg 95%
    04:00 +2°C° 0 mm 3 m/S 754 mmHg 95%
    05:00 +2°C° 0 mm 3 m/S 754 mmHg 95%
    06:00 +1°C° 0 mm 4 m/S 754 mmHg 95%
    07:00 +1°C° 0 mm 4 m/S 755 mmHg 94%
    08:00 +1°C° 0 mm 4 m/S 755 mmHg 94%
    09:00 +3°C° 0 mm 4 m/S 755 mmHg 93%
    10:00 +3°C° 0 mm 4 m/S 756 mmHg 92%
    11:00 +3°C° 0 mm 4 m/S 756 mmHg 90%
    12:00 +4°C° 0 mm 4 m/S 756 mmHg 87%
    13:00 +5°C° 0 mm 4 m/S 756 mmHg 84%
    14:00 +5°C° 0 mm 4 m/S 756 mmHg 85%
    15:00 +4°C° 0 mm 4 m/S 756 mmHg 85%
    16:00 +4°C° 0 mm 4 m/S 756 mmHg 86%
    17:00 +4°C° 0 mm 4 m/S 757 mmHg 87%
    18:00 +4°C° 0 mm 4 m/S 757 mmHg 87%
    19:00 +3°C° 0 mm 4 m/S 757 mmHg 88%
    20:00 +2°C° 0,1 mm 5 m/S 757 mmHg 88%
    21:00 +2°C° 0,1 mm 5 m/S 758 mmHg 88%
    22:00 +2°C° 0,1 mm 6 m/S 758 mmHg 88%
    23:00 +2°C° 0 mm 6 m/S 758 mmHg 89%

    27 Januar, Samstag

    Zeit Temperatur Niederschläge Wind Luftdruck Luftfeuchtigkeit
    00:00 +2°C° 0 mm 6 m/S 759 mmHg 90%
    01:00 +2°C° 0 mm 6 m/S 759 mmHg 90%
    02:00 +2°C° 0 mm 5 m/S 760 mmHg 90%
    03:00 +2°C° 0 mm 5 m/S 760 mmHg 91%
    04:00 +2°C° 0 mm 5 m/S 761 mmHg 91%
    05:00 +1°C° 0 mm 5 m/S 761 mmHg 91%
    06:00 +1°C° 0 mm 4 m/S 762 mmHg 90%
    07:00 0°C° 0 mm 4 m/S 762 mmHg 90%
    08:00 0°C° 0 mm 4 m/S 763 mmHg 88%
    09:00 +1°C° 0 mm 4 m/S 764 mmHg 86%
    10:00 +1°C° 0 mm 4 m/S 764 mmHg 84%
    11:00 +3°C° 0 mm 4 m/S 764 mmHg 79%
    12:00 +3°C° 0 mm 5 m/S 765 mmHg 74%
    13:00 +3°C° 0 mm 5 m/S 765 mmHg 69%
    14:00 +4°C° 0 mm 4 m/S 765 mmHg 71%
    15:00 +4°C° 0 mm 4 m/S 765 mmHg 74%
    16:00 +3°C° 0 mm 4 m/S 765 mmHg 76%
    17:00 +1°C° 0 mm 4 m/S 765 mmHg 79%
    18:00 +1°C° 0 mm 4 m/S 765 mmHg 82%
    19:00 0°C° 0 mm 5 m/S 764 mmHg 85%
    20:00 0°C° 0 mm 5 m/S 764 mmHg 83%
    21:00 +1°C° 0 mm 6 m/S 763 mmHg 81%
    22:00 0°C° 0 mm 7 m/S 762 mmHg 79%
    23:00 0°C° 0,5 mm 8 m/S 761 mmHg 80%

    28 Januar, Sonntag

    Zeit Temperatur Niederschläge Wind Luftdruck Luftfeuchtigkeit
    00:00 0°C° 0,5 mm 9 m/S 760 mmHg 81%
    01:00 +1°C° 0,5 mm 10 m/S 759 mmHg 82%
    02:00 +2°C° 0,4 mm 10 m/S 758 mmHg 85%
    03:00 +2°C° 0,4 mm 9 m/S 757 mmHg 87%
    04:00 +3°C° 0,4 mm 9 m/S 757 mmHg 90%
    05:00 +5°C° 0,1 mm 9 m/S 757 mmHg 90%
    06:00 +5°C° 0,1 mm 8 m/S 757 mmHg 91%
    07:00 +6°C° 0,1 mm 7 m/S 757 mmHg 92%
    08:00 +6°C° 0 mm 7 m/S 757 mmHg 90%
    09:00 +6°C° 0 mm 7 m/S 758 mmHg 89%
    10:00 +6°C° 0 mm 7 m/S 758 mmHg 88%
    11:00 +6°C° 0 mm 8 m/S 758 mmHg 83%
    12:00 +6°C° 0 mm 8 m/S 759 mmHg 78%
    13:00 +7°C° 0 mm 8 m/S 759 mmHg 73%
    14:00 +6°C° 0 mm 8 m/S 759 mmHg 76%
    15:00 +6°C° 0 mm 7 m/S 760 mmHg 78%
    16:00 +7°C° 0 mm 6 m/S 760 mmHg 80%
    17:00 +7°C° 0 mm 6 m/S 760 mmHg 83%
    18:00 +5°C° 0 mm 6 m/S 761 mmHg 86%
    19:00 +5°C° 0 mm 6 m/S 761 mmHg 90%
    20:00 +7°C° 0,1 mm 6 m/S 761 mmHg 90%
    21:00 +6°C° 0,1 mm 7 m/S 762 mmHg 91%
    22:00 +8°C° 0,1 mm 7 m/S 762 mmHg 91%
    23:00 +8°C° 0,1 mm 7 m/S 762 mmHg 91%
    Mehr zeigen